Location: Gelderswoude
(52.0918°N, 4.5323°E)
Time: 18:00:53
(UTC+00:00)

Daily predictions for brighter satellites

Satellite Brightness Start Highest point End
(mag) Time Altitude Azimuth Time Altitude Azimuth Time Altitude Azimuth
Landsat 7 4.0 20:24:10 10° SSE 20:28:52 67° ENE 20:33:37 10° N
STARLINK-1096 3.7 20:26:33 10° WNW 20:30:40 67° SSW 20:34:47 10° ESE
USA 245 2.6 20:28:20 10° SSE 20:31:36 70° ENE 20:34:18 10° N
Cosmos 1782 Rocket 4.5 20:27:42 10° NNW 20:32:02 50° W 20:36:21 10° S
STARLINK-1271 3.8 20:28:29 10° SW 20:32:31 52° SSE 20:36:34 10° ENE
STARLINK-1104 3.8 20:28:47 10° W 20:32:56 80° N 20:37:06 10° E
Meteor 2-4 Rocket 3.7 20:27:45 10° S 20:33:02 63° E 20:38:20 10° NNE
STARLINK-1079 3.7 20:31:33 10° WNW 20:35:40 64° SSW 20:39:46 10° ESE
NOSS 2-3 (D) 3.7 20:32:30 10° SW 20:36:52 76° SE 20:42:11 10° NE
Meteor 1-12 Rocket 4.3 20:31:23 10° NNW 20:37:05 81° ENE 20:42:46 10° SSE
Sich 1 Rocket 4.1 20:32:42 10° NNW 20:37:16 66° W 20:41:49 10° S
STARLINK-1154 3.7 20:33:25 10° SW 20:37:28 55° SSE 20:41:32 10° ENE
STARLINK-1144 3.7 20:33:47 10° W 20:37:57 81° N 20:42:07 10° E
Resurs 01 Rocket 2.7 20:34:51 10° S 20:39:07 45° W 20:43:25 10° NNW
STARLINK-1116 3.8 20:36:30 10° WNW 20:40:37 61° SSW 20:44:41 10° SE
USA 215 3.7 20:35:05 10° E 20:41:33 64° NNE 20:48:00 10° WNW
STARLINK-1197 3.7 20:38:21 10° SW 20:42:26 58° SSE 20:46:30 10° ENE
STARLINK-1103 3.7 20:38:46 10° W 20:42:56 82° N 20:47:06 10° E
Cosmos 1452 Rocket 4.0 20:39:20 10° S 20:44:18 43° ESE 20:49:17 10° NE
Meteor 1-13 Rocket 4.4 20:40:01 10° S 20:45:28 55° E 20:51:04 10° NNE
Abrixas rocket 2.4 20:43:08 10° WSW 20:45:57 40° S 20:48:44 10° ESE
STARLINK-1198 3.6 20:43:20 10° SW 20:47:24 61° SSE 20:51:31 10° ENE
STARLINK-1101 3.7 20:43:45 10° W 20:47:55 83° N 20:52:05 10° E
Cosmos 1420 Rocket 4.0 20:42:49 10° S 20:47:56 62° ESE 20:53:05 10° NNE
USA 229 DEB 4.1 20:41:37 10° WSW 20:48:13 69° NW 20:55:15 10° NE
USA 229 4.1 20:41:45 10° WSW 20:48:19 69° NW 20:55:21 10° NE
ERBS 2.7 20:46:06 10° SSW 20:49:10 37° SE 20:52:17 10° ENE
Okean 2 Rocket 3.2 20:45:02 10° NNW 20:49:29 77° W 20:53:53 10° S
Cosmos 2279 Rocket 4.1 20:43:31 10° N 20:49:49 87° ENE 20:56:04 10° S
STARLINK-1094 3.9 20:46:29 10° WNW 20:50:34 55° SSW 20:54:37 10° SE
ATLAS 3B R/B 4.3 20:46:20 10° NW 20:52:16 32° NNE 20:58:20 10° ENE
STARLINK-1199 3.6 20:48:16 10° WSW 20:52:22 64° SSE 20:56:29 10° ENE
STARLINK-1102 3.7 20:48:44 10° W 20:52:54 85° N 20:57:04 10° E
CENTAUR R/B 4.0 20:46:18 10° NW 20:53:27 46° NNE 21:01:33 10° E
NOSS 3-1 (C) 4.2 20:48:53 10° WSW 20:54:34 60° NW 21:01:20 10° NE
STARLINK-1117 3.9 20:51:28 10° WNW 20:55:31 52° SSW 20:59:26 11° SE
CZ-2C R/B 3.9 20:50:49 10° N 20:56:09 47° WNW 21:01:29 10° SW
Cosmos 2082 Rocket 2.3 20:50:30 10° NNW 20:56:16 80° WSW 21:01:58 10° SSE
NOSS 3-1 (A) 3.7 20:51:32 10° SW 20:57:13 77° NW 21:04:00 10° NE
STARLINK-1210 3.6 20:53:13 10° WSW 20:57:20 67° SSE 21:01:28 10° ENE
STARLINK-1111 3.7 20:53:43 10° WNW 20:57:53 86° NNE 21:02:03 10° E
Cosmos 1833 Rocket 3.3 20:52:50 10° NW 20:58:18 52° WSW 21:03:42 10° S
SL-4 R/B 2.1 20:55:15 10° NW 20:58:18 43° WSW 21:01:02 11° SSE
Okean 1 Rocket 3.6 20:54:53 10° N 20:59:16 49° ENE 21:03:19 11° SSE
STARLINK-1200 4.5 20:56:24 10° SSW 20:59:58 28° SE 21:03:32 10° E
STARLINK-1078 4.0 20:56:28 10° WNW 21:00:29 50° SSW 21:04:14 12° SE
STARLINK-1212 2.9 20:57:59 10° W 21:01:06 86° NNW 21:04:13 10° ENE
STARLINK-1105 2.9 20:58:27 10° W 21:01:34 85° NNW 21:04:41 10° ENE
STARLINK-1219 3.6 20:58:10 10° WSW 21:02:18 70° SSE 21:06:26 10° ENE
STARLINK-1247 2.9 20:59:19 10° W 21:02:26 85° NNW 21:05:35 10° ENE
STARLINK-1073 3.6 20:58:41 10° WNW 21:02:51 88° NNE 21:07:01 10° ESE
STARLINK-1227 2.9 20:59:48 10° W 21:02:54 85° NNW 21:06:02 10° ENE
Cosmos 2151 Rocket 3.8 20:58:41 10° NNW 21:03:14 79° W 21:07:45 10° S
STARLINK-1226 2.9 21:00:41 10° W 21:03:48 84° NNW 21:06:56 10° ENE
STARLINK-1215 2.9 21:01:34 10° W 21:04:42 84° NNW 21:07:50 10° ENE
STARLINK-1192 4.4 21:01:17 10° SSW 21:04:55 30° SE 21:08:34 10° E
STARLINK-1234 3.1 21:02:10 10° W 21:05:24 78° N 21:08:40 10° E
STARLINK-1108 4.1 21:01:27 10° WNW 21:05:27 47° SSW 21:09:00 13° SE
STARLINK-1217 2.9 21:03:22 10° W 21:06:30 83° N 21:09:38 10° ENE
STARLINK-1211 3.5 21:03:09 10° WSW 21:07:17 73° SSE 21:11:26 10° ENE
STARLINK-1229 2.9 21:04:16 10° W 21:07:23 83° NNW 21:10:31 10° ENE
NOSS 2-3 (C) 4.2 21:03:10 10° SW 21:07:38 69° NW 21:13:07 10° NE
STARLINK-1121 3.6 21:03:41 10° WNW 21:07:51 90° S 21:12:00 10° ESE
STARLINK-1270 2.9 21:05:10 10° W 21:08:17 82° N 21:11:25 10° ENE
IGS 5A 4.1 21:05:26 10° S 21:09:29 52° W 21:13:35 10° NNW
STARLINK-1244 4.3 21:06:10 10° SSW 21:09:52 32° SE 21:13:34 10° E
STARLINK-1189 2.9 21:06:59 10° W 21:10:07 81° N 21:13:15 10° ENE
STARLINK-1071 4.1 21:06:26 10° WNW 21:10:24 44° SSW 21:13:47 13° SE
STARLINK-1188 2.9 21:07:53 10° W 21:11:00 81° N 21:14:08 10° E
STARLINK-1235 3.0 21:08:36 10° W 21:11:42 76° N 21:14:48 10° E
STARLINK-1187 3.0 21:09:02 10° W 21:12:07 78° N 21:15:14 10° E
STARLINK-1245 3.5 21:08:07 10° WSW 21:12:15 76° SSE 21:16:24 10° ENE
Cosmos 1943 Rocket 3.7 21:09:27 11° SE 21:12:32 17° E 21:16:04 10° ENE
STARLINK-1106 3.6 21:08:38 10° WNW 21:12:48 87° SSW 21:16:58 10° ESE
Cosmos 2369 Rocket 4.1 21:10:48 10° ESE 21:13:19 13° E 21:15:50 10° ENE
ISS -2.7 21:10:17 10° W 21:13:19 31° SSW 21:15:35 15° SSE
STARLINK-1191 2.9 21:10:20 10° W 21:13:27 80° N 21:16:34 10° E
Terra 1.9 21:09:16 12° SSE 21:13:39 67° ENE 21:18:23 10° N
STARLINK-1221 2.9 21:11:14 10° W 21:14:21 80° N 21:17:27 10° E
STARLINK-1110 4.2 21:10:29 10° WNW 21:14:24 42° SSW 21:17:39 14° SE
Cosmos 1741 Rocket 4.1 21:09:28 10° NNW 21:14:43 77° WSW 21:19:31 12° SSE
STARLINK-1138 4.2 21:11:02 10° SSW 21:14:47 34° SE 21:18:34 10° E
SPOT 1/Viking Rocket 3.9 21:10:03 10° S 21:15:10 62° WSW 21:20:18 10° NNW
STARLINK-1222 2.9 21:12:08 10° W 21:15:14 79° N 21:18:22 10° E
SeaSat 1 4.0 21:12:28 10° ENE 21:15:44 18° ESE 21:18:10 13° SE
STARLINK-1214 3.0 21:13:04 10° W 21:16:11 79° N 21:19:17 10° E
Okean 3 4.2 21:12:20 10° SSW 21:16:34 56° WNW 21:20:50 10° N
Crew Dragon 1.8 21:15:23 10° WSW 21:17:06 20° SSW 21:17:56 17° S
STARLINK-1233 3.5 21:13:05 10° WSW 21:17:13 78° SSE 21:21:23 10° ENE
Cosmos 1805 3.9 21:13:52 10° N 21:17:39 43° ENE 21:20:39 15° SE
STARLINK-1209 3.2 21:14:28 10° W 21:17:43 75° N 21:20:58 10° E
STARLINK-1112 3.6 21:13:38 10° WNW 21:17:48 85° SSW 21:21:57 10° ESE
STARLINK-1143 4.1 21:15:56 10° SSW 21:19:44 36° SSE 21:23:33 10° E
STARLINK-1124 4.3 21:16:24 10° W 21:20:18 40° SSW 21:23:20 15° SSE
deb Kosmos-1763 4.0 21:18:06 10° NNW 21:21:44 78° ENE 21:24:30 16° SSE
STARLINK-1204 3.5 21:18:04 10° WSW 21:22:13 81° SSE 21:26:23 10° ENE
CARTOSAT-1 3.7 21:18:14 11° S 21:22:23 71° WSW 21:26:44 10° NNW
STARLINK-1128 3.6 21:18:38 10° WNW 21:22:48 83° SSW 21:26:57 10° ESE
Cosmos 1066 Rocket 4.3 21:17:41 10° S 21:22:58 58° E 21:28:14 10° NNE
Cosmos 1461 3.7 21:20:08 10° S 21:23:49 32° ESE 21:27:43 10° ENE
STARLINK-1241 4.1 21:20:51 10° SW 21:24:42 38° SSE 21:28:34 10° E
Lacrosse 5 2.7 21:20:22 10° WNW 21:25:01 37° SW 21:28:51 14° SSE
ERS-1 Rocket 3.2 21:20:07 10° S 21:25:06 67° WSW 21:30:09 10° NNW
STARLINK-1122 4.4 21:21:25 10° W 21:25:15 37° SSW 21:28:07 16° SSE
Cosmos 371 Rocket 3.3 21:20:25 10° SSW 21:25:16 87° ESE 21:30:12 10° NNE
STARLINK-1203 4.0 21:22:39 10° SW 21:26:35 40° SSE 21:30:33 10° E
Cosmos 1850 Rocket 4.4 21:21:33 10° NNW 21:26:49 61° WSW 21:31:37 12° S
Cosmos 1092 Rocket 4.5 21:21:45 13° SSE 21:26:52 43° E 21:32:37 10° NNE
STARLINK-1238 3.5 21:23:02 10° WSW 21:27:12 84° SSE 21:31:22 10° ENE
STARLINK-1113 3.6 21:23:36 10° WNW 21:27:45 80° SSW 21:31:54 10° ESE
NOSS 3-2 (A) 4.2 21:21:35 10° NW 21:28:48 72° NE 21:37:02 10° SE
STARLINK-1239 4.0 21:25:45 10° SW 21:29:38 41° SSE 21:33:33 10° E
STARLINK-1126 4.5 21:26:13 10° W 21:30:01 35° SSW 21:32:42 17° SSE
STARLINK-1201 3.6 21:28:01 10° WSW 21:32:11 86° SSE 21:36:21 10° ENE
STARLINK-1119 3.6 21:28:34 10° WNW 21:32:43 77° SSW 21:36:41 11° ESE
Cosmos 2278 Rocket 2.7 21:27:09 10° SW 21:32:47 64° NW 21:38:28 10° NNE
MTI 4.2 21:31:06 10° NNE 21:34:09 44° E 21:36:06 19° SSE
STARLINK-1240 3.9 21:30:42 10° SW 21:34:37 43° SSE 21:38:34 10° ENE
Cosmos 1110 Rocket 4.3 21:31:28 11° S 21:36:10 47° ESE 21:41:07 10° NE
STARLINK-1206 3.6 21:33:00 10° WSW 21:37:10 89° SSE 21:41:20 10° ENE
STARLINK-1114 3.6 21:33:33 10° WNW 21:37:43 74° SSW 21:41:28 12° ESE
USA 238 DEB 4.0 21:30:59 10° NW 21:38:08 76° NE 21:45:12 12° SE
USA 238 4.0 21:31:05 10° NW 21:38:14 76° NE 21:45:19 12° SE
STARLINK-1216 3.8 21:35:36 10° SW 21:39:34 46° SSE 21:43:32 10° ENE
STARLINK-1228 3.3 21:38:20 10° W 21:41:45 74° N 21:45:11 10° E
STARLINK-1205 3.6 21:37:59 10° WSW 21:42:09 89° NNW 21:46:19 10° ENE
STARLINK-1130 (DARKSAT) 3.6 21:38:34 10° WNW 21:42:42 71° SSW 21:46:16 14° ESE
STARLINK-1237 3.8 21:40:31 10° SW 21:44:31 48° SSE 21:48:32 10° ENE
STARLINK-1218 3.6 21:42:58 10° WSW 21:47:07 87° NNW 21:51:18 10° ENE
STARLINK-1084 3.6 21:43:31 10° WNW 21:47:39 68° SSW 21:51:01 15° ESE
ALOS 2 4.4 21:44:31 10° ESE 21:47:54 22° ENE 21:51:19 10° N
Cosmos 1437 Rocket 3.3 21:44:15 10° SSW 21:47:59 55° WNW 21:51:45 10° N
STARLINK-1202 3.7 21:45:29 10° SW 21:49:29 51° SSE 21:53:32 10° ENE
NOSS 8 (F) 4.0 21:48:53 10° SW 21:52:00 68° SE 21:55:04 10° NE
STARLINK-1254 3.6 21:47:57 10° W 21:52:06 86° NNW 21:56:17 10° E
STARLINK-1098 3.6 21:48:30 10° WNW 21:52:37 65° SSW 21:55:48 16° ESE
Cosmos 1900 4.4 21:47:51 10° NW 21:52:55 85° NE 21:56:46 18° SE
Aureole 3 Rocket 4.4 21:51:09 10° N 21:56:23 52° ENE 22:01:57 17° SSE
Cosmos 1331 Rocket 4.0 21:52:17 13° S 21:56:52 61° ESE 22:02:00 10° NNE
STARLINK-1231 3.7 21:52:55 10° W 21:57:04 84° N 22:01:15 10° E
STARLINK-1123 3.6 21:53:29 10° WNW 21:57:36 62° SSW 22:00:35 18° SE
Cosmos 1674 Rocket 4.3 21:53:37 10° SSW 21:57:52 51° WNW 22:02:12 10° N
Aureole 2 Rocket 2.0 21:56:36 15° SSW 21:59:06 86° ESE 22:02:08 10° NNE
STARLINK-1246 3.6 21:55:22 10° SW 21:59:25 57° SSE 22:03:30 10° ENE
Okean 2 3.6 21:57:29 20° SSE 22:00:08 56° E 22:04:13 10° NNE
BREEZE-M DEB (TANK) 4.5 21:47:58 10° WNW 22:00:58 46° SW 22:04:24 19° SSE
STARLINK-1232 3.7 21:57:55 10° W 22:02:05 82° N 22:06:15 10° E
SL-8 R/B 4.0 21:57:50 10° W 22:02:27 47° SSW 22:06:00 16° SE
STARLINK-1097 3.7 21:58:28 10° WNW 22:02:33 59° SSW 22:05:22 19° SE
SPOT 5 4.1 21:58:24 11° SSW 22:03:06 40° W 22:08:08 10° NNW
Cosmos 1378 Rocket 4.1 21:58:59 10° SSW 22:03:20 58° WNW 22:07:41 10° N
STARLINK-1224 3.6 22:00:18 10° SW 22:04:22 60° SSE 22:08:28 10° ENE
Cosmos 304 Rocket 3.8 22:01:48 10° SSW 22:06:36 82° WNW 22:11:26 10° NNE
STARLINK-1208 3.7 22:02:54 10° W 22:07:04 81° N 22:11:14 10° E
STARLINK-1099 3.7 22:03:28 10° WNW 22:07:33 56° SSW 22:10:10 21° SE
Cosmos 1766 3.5 22:03:40 10° NNW 22:07:37 65° W 22:10:13 20° S
Cosmos 1271 Rocket 4.2 22:07:09 18° ESE 22:08:41 23° E 22:11:48 10° NE
Cosmos 1733 3.2 22:05:00 10° NNW 22:08:51 80° W 22:11:07 23° S
STARLINK-1225 3.5 22:05:15 10° WSW 22:09:21 63° SSE 22:13:27 10° ENE
Cosmos 1553 Rocket 4.3 22:05:16 10° N 22:11:33 58° ENE 22:16:01 19° SSE
STARLINK-1271 3.7 22:07:53 10° W 22:12:02 80° N 22:16:12 10° E
STARLINK-1104 3.8 22:08:25 10° WNW 22:12:29 54° SSW 22:14:55 22° SE
BREEZE-M DEB (TANK) 3.7 22:00:44 10° WSW 22:13:57 54° SSE 22:17:42 10° E
SWAS 4.4 22:09:50 10° NNW 22:14:11 90° WSW 22:16:49 23° SSE
STARLINK-1230 3.5 22:10:12 10° WSW 22:14:18 66° SSE 22:18:26 10° ENE
Cosmos 2026 Rocket 4.1 22:11:35 18° S 22:16:25 71° E 22:22:45 10° NNE
STARLINK-1154 3.7 22:12:51 10° W 22:17:00 79° N 22:21:10 10° E
Cosmos 1707 4.2 22:15:44 19° SE 22:17:19 25° E 22:20:33 10° NNE
Cosmos 1975 Rocket 3.0 22:14:27 21° S 22:17:27 76° E 22:21:52 10° NNE
STARLINK-1144 3.8 22:13:26 10° WNW 22:17:28 51° SSW 22:19:43 24° SE
STARLINK-1243 3.5 22:15:10 10° WSW 22:19:17 69° SSE 22:23:25 10° ENE
SL-27 R/B 2.5 22:17:22 10° NNW 22:21:01 79° ENE 22:22:47 28° SSE
Abrixas rocket 3.3 22:18:36 10° WSW 22:20:46 24° SSW 22:20:46 24° SSW
EXPRESS MD2 4.3 22:17:54 10° SW 22:21:55 54° SSE 22:30:08 10° E
STARLINK-1197 3.7 22:17:49 10° W 22:21:59 78° N 22:26:09 10° E
NOSS 8 (H) 4.0 22:19:14 12° SW 22:22:01 81° SE 22:25:09 10° NE
STARLINK-1103 3.9 22:18:25 10° WNW 22:22:25 48° SSW 22:24:30 25° SSE
STARLINK-1236 3.5 22:20:09 10° WSW 22:24:16 72° SSE 22:28:25 10° ENE
USA 215 3.2 22:18:24 12° SE 22:24:32 76° SSW 22:31:07 10° WNW
Cosmos 1340 Rocket 4.3 22:21:02 10° N 22:24:32 27° ENE 22:27:01 16° ESE
ERBS 3.1 22:22:10 10° W 22:25:25 52° NNW 22:28:41 10° ENE
STARLINK-1198 3.7 22:22:50 10° W 22:27:00 78° N 22:31:09 10° E
Cosmos 1953 3.5 22:23:39 10° N 22:27:19 33° ENE 22:29:31 19° SE
STARLINK-1101 4.0 22:23:24 10° WNW 22:27:22 45° SSW 22:29:17 26° SSE
Helios 1A 4.5 22:24:53 14° ESE 22:27:43 28° ENE 22:31:20 10° N
SL-4 R/B 1.5 22:28:19 32° E 22:28:36 34° ENE 22:30:39 10° N
Thor Agena Rocket 3.6 22:24:31 10° NNE 22:29:51 72° ESE 22:33:31 20° S
COSMOS 2487 4.3 22:28:53 10° N 22:31:46 24° NE 22:34:08 13° ESE
STARLINK-1199 3.7 22:27:49 10° W 22:31:59 77° N 22:36:08 10° E
STARLINK-1102 4.1 22:28:24 10° WNW 22:32:21 43° SSW 22:34:04 27° SSE
Cosmos 2297 4.0 22:26:44 10° SW 22:32:25 71° WNW 22:38:10 10° NNE
NOSS 2-2 (D) 3.1 22:30:17 17° SSW 22:32:54 67° SE 22:37:03 10° NE
STARLINK-1269 3.5 22:30:03 10° WSW 22:34:11 77° SSE 22:38:21 10° ENE
NOSS 3-2 (C) 4.0 22:28:28 10° NW 22:35:50 85° SW 22:42:46 16° SE
STARLINK-1210 3.7 22:32:47 10° W 22:36:57 77° N 22:41:07 10° E
STARLINK-1212 2.9 22:33:53 10° W 22:37:00 80° N 22:40:03 11° E
Cosmos 1378 4.4 22:34:05 13° SW 22:37:09 38° WNW 22:40:40 10° N
STARLINK-1111 4.1 22:33:23 10° W 22:37:17 40° SSW 22:38:50 28° SSE
STARLINK-1105 2.9 22:34:22 10° W 22:37:29 80° N 22:40:28 11° E
STARLINK-1247 2.9 22:35:13 10° W 22:38:22 80° NNE 22:41:23 11° E
Cosmos 1758 3.3 22:34:28 10° N 22:38:32 78° E 22:40:34 28° SSE
STARLINK-1227 2.9 22:35:42 10° W 22:38:49 81° N 22:41:46 11° E
STARLINK-1200 3.5 22:35:02 10° WSW 22:39:11 80° SSE 22:43:21 10° ENE
ATLAS CENTAUR R/B 3.0 22:37:41 10° NW 22:39:13 21° NNE 22:41:07 10° ENE
BREEZE-M DEB (TANK) 4.4 22:26:11 10° WNW 22:39:17 53° SSW 22:42:01 22° SE
Cosmos 2082 Rocket 4.3 22:36:08 10° WNW 22:39:26 16° W 22:42:45 10° SW
STARLINK-1226 2.9 22:36:35 10° W 22:39:43 81° N 22:42:41 11° E
Cosmos 292 Rocket 4.2 22:37:50 25° SSE 22:40:19 47° ESE 22:44:59 10° NE
STARLINK-1215 2.9 22:37:29 10° WNW 22:40:37 81° N 22:43:34 11° E
COSMOS 2455 4.3 22:39:20 17° SE 22:41:30 20° ESE 22:45:44 10° ENE
STARLINK-1234 2.9 22:38:24 10° WNW 22:41:39 89° NNE 22:44:17 15° ESE
STARLINK-1219 3.7 22:37:46 10° W 22:41:56 77° N 22:46:05 10° E
EO 1 Del DPAF 3.1 22:38:09 10° NNE 22:41:58 90° W 22:44:01 26° SSW
STARLINK-1073 4.2 22:38:22 10° W 22:42:14 38° SSW 22:43:37 29° S
STARLINK-1217 2.9 22:39:17 10° WNW 22:42:25 82° N 22:45:17 12° E
STARLINK-1229 2.9 22:40:10 10° WNW 22:43:18 83° N 22:46:08 12° E
STARLINK-1192 3.5 22:40:02 10° WSW 22:44:11 83° SSE 22:48:21 10° ENE
ATLAS 3B R/B 3.1 22:37:31 10° NW 22:44:12 61° NE 22:51:05 10° ESE
STARLINK-1270 2.8 22:41:04 10° WNW 22:44:12 83° N 22:47:02 12° E
CENTAUR R/B 3.2 22:37:07 10° NW 22:45:00 86° SW 22:52:28 15° SE
STARLINK-1189 2.8 22:42:54 10° WNW 22:46:02 84° N 22:48:46 13° E
STARLINK-1188 2.8 22:43:47 10° WNW 22:46:55 84° N 22:49:38 13° E
Cosmos 1455 Rocket 3.6 22:42:41 10° NNW 22:46:55 50° W 22:49:22 23° SSW
STARLINK-1211 3.7 22:42:46 10° W 22:46:56 77° N 22:51:05 10° E
STARLINK-1121 4.3 22:43:23 10° W 22:47:12 36° SSW 22:48:24 29° S
STARLINK-1235 2.7 22:44:30 10° WNW 22:47:36 89° S 22:49:44 19° ESE
STARLINK-1187 2.8 22:44:56 10° WNW 22:48:02 88° NNE 22:50:22 16° ESE
NOSS 3-4 (A) 4.4 22:45:54 22° SSE 22:48:21 29° ESE 22:53:39 10° ENE
NOSS 3-4 (C) 4.4 22:46:01 22° SSE 22:48:28 29° ESE 22:53:46 10° ENE
STARLINK-1244 3.5 22:45:00 10° WSW 22:49:09 85° SSE 22:53:19 10° ENE
Cosmos 1470 2.8 22:45:23 10° NNW 22:49:16 71° W 22:51:05 30° S
STARLINK-1191 2.8 22:46:14 10° WNW 22:49:22 85° NNE 22:51:55 14° E
Cosmos 1025 Rocket 3.2 22:47:51 28° SSE 22:49:54 58° E 22:54:08 10° NNE
STARLINK-1221 2.8 22:47:08 10° WNW 22:50:15 86° N 22:52:46 15° E
STARLINK-1222 2.8 22:48:03 10° WNW 22:51:09 86° NNE 22:53:39 15° E
NOSS 2-2 (E) 3.4 22:47:30 10° SW 22:51:10 75° NW 22:55:34 10° NE
Terra 3.8 22:48:28 10° SW 22:51:52 19° W 22:55:18 10° NW
STARLINK-1245 3.7 22:47:45 10° W 22:51:55 77° N 22:56:04 10° E
STARLINK-1214 2.8 22:48:58 10° WNW 22:52:05 87° N 22:54:32 15° E
STARLINK-1106 4.4 22:48:22 10° W 22:52:08 34° SW 22:53:10 29° S
SL-4 R/B 3.8 22:52:55 20° SE 22:52:55 20° SE 22:56:10 10° E
SeaSat 1 2.4 22:48:54 10° NNE 22:53:53 89° WNW 22:57:56 15° SSW
STARLINK-1209 2.8 22:50:48 10° WNW 22:54:03 81° SSW 22:56:06 21° ESE
STARLINK-1138 3.5 22:49:58 10° WSW 22:54:07 88° SSE 22:58:17 10° ENE
Cosmos 1943 Rocket 2.1 22:50:56 16° SSW 22:55:29 88° ESE 23:01:08 10° NNE
Cosmos 2369 Rocket 2.2 22:52:24 21° SSW 22:56:19 69° ESE 23:01:57 10° NE
STARLINK-1233 3.7 22:52:44 10° W 22:56:54 78° N 23:01:03 10° E
STARLINK-1112 4.5 22:53:22 10° W 22:57:05 32° SW 22:57:57 29° S
STARLINK-1143 3.5 22:54:56 10° WSW 22:59:06 90° ESE 23:03:15 10° ENE
Cosmos 1726 2.3 22:57:50 10° N 23:01:32 64° ENE 23:03:06 32° SSE
STARLINK-1204 3.7 22:57:44 10° W 23:01:54 78° N 23:06:03 10° E
Cosmos 1461 4.0 22:58:42 10° WSW 23:02:47 47° NW 23:07:08 10° NE
STARLINK-1241 3.6 22:59:56 10° WSW 23:04:06 88° N 23:08:15 10° ENE
STARLINK-1203 3.6 23:02:00 10° WSW 23:06:13 87° NNW 23:10:27 10° ENE
STARLINK-1238 3.7 23:02:43 10° W 23:06:53 79° N 23:11:03 10° E
STARLINK-1239 3.6 23:04:53 10° W 23:09:03 86° N 23:13:13 10° ENE
Cosmos 1842 4.5 23:08:00 16° SW 23:10:40 36° WNW 23:14:19 10° N
STARLINK-1201 3.7 23:07:43 10° W 23:11:53 80° N 23:16:02 10° E
Cosmos 2228 3.8 23:09:23 10° N 23:13:28 42° ENE 23:15:49 22° SE
STARLINK-1240 3.6 23:09:54 10° W 23:14:04 84° N 23:18:14 10° E
NOSS 2-2 (C) 3.8 23:11:12 10° WSW 23:14:48 59° NW 23:19:06 10° NE
Cosmos 968 Rocket 3.8 23:09:57 10° NNW 23:15:00 54° WSW 23:17:39 26° S
Cosmos 1503 Rocket 4.1 23:10:29 10° NNW 23:15:47 71° WSW 23:18:45 27° S
ATLAS 2AS CENTAUR R/B 3.3 23:11:15 21° S 23:16:37 53° ESE 23:24:14 10° NE
STARLINK-1206 3.7 23:12:41 10° W 23:16:52 81° N 23:21:01 10° E
Cosmos 1536 Rocket 3.5 23:14:55 29° S 23:17:07 88° W 23:21:31 10° N
Cosmos 1242 Rocket 3.3 23:15:39 23° SW 23:17:37 47° WNW 23:21:13 10° N
STARLINK-1228 3.0 23:15:12 10° WNW 23:18:36 66° SSW 23:20:09 29° SE
STARLINK-1216 3.6 23:14:52 10° W 23:19:01 83° N 23:23:11 10° E
SJ 16-02 4.0 23:17:49 10° N 23:20:20 15° NE 23:22:50 10° ENE
STARLINK-1205 3.6 23:17:41 10° W 23:21:51 82° N 23:26:01 10° E
ALOS 2 2.9 23:21:50 28° SSW 23:23:55 55° W 23:28:16 10° NNW
STARLINK-1237 3.7 23:19:51 10° W 23:24:00 82° N 23:28:10 10° E
Cosmos 2315 Rocket 4.1 23:20:21 10° N 23:26:35 76° ENE 23:30:38 23° SSE
STARLINK-1218 3.6 23:22:40 10° W 23:26:50 84° NNE 23:31:00 10° E
Cosmos 2292 Rocket 3.2 23:25:41 33° S 23:27:21 71° E 23:30:42 10° NNE
ATLAS CENTAUR R/B 2.5 23:27:38 26° SE 23:28:35 28° ESE 23:32:10 10° ENE
STARLINK-1202 3.7 23:24:51 10° W 23:29:00 80° N 23:33:10 10° E
Cosmos 2058 Rocket 4.2 23:26:19 10° N 23:30:25 36° ENE 23:33:18 17° SE
Cosmos 1626 4.1 23:29:00 15° ESE 23:30:31 18° E 23:33:08 10° NE
STARLINK-1254 3.6 23:27:39 10° W 23:31:49 85° NNE 23:35:59 10° E
Cosmos 1354 Rocket 4.2 23:27:20 10° NNW 23:32:33 59° WSW 23:35:21 27° S
Cosmos 1656 Rocket 3.7 23:30:19 25° SSW 23:33:40 70° ESE 23:39:14 10° NE
Meteor 2-10 4.3 23:29:36 10° NNW 23:34:32 53° W 23:37:10 26° SSW
Cosmos 1300 4.4 23:31:29 10° N 23:34:47 27° ENE 23:37:12 15° ESE
STARLINK-1231 3.6 23:32:37 10° WNW 23:36:47 87° NNE 23:40:57 10° ESE
Cosmos 2263 4.2 23:32:55 20° SSW 23:36:54 86° WNW 23:42:33 10° NNE
RESURS DK-1 4.1 23:37:48 18° SE 23:38:53 20° ESE 23:41:54 10° ENE
STARLINK-1246 3.7 23:34:49 10° W 23:38:59 79° N 23:43:09 10° E
Meteor 2-5 Rocket 4.4 23:36:21 22° SSE 23:39:30 43° E 23:44:47 10° NNE
Cosmos 1867 3.7 23:34:09 10° NW 23:39:32 60° SW 23:42:37 25° SSE
Aureole 3 2.9 23:36:55 10° NNW 23:40:30 64° W 23:41:25 41° SSW
S3M 4.5 23:35:08 10° NNW 23:41:01 49° W 23:44:50 22° SSW
STARLINK-1232 3.6 23:37:37 10° WNW 23:41:48 89° NNE 23:45:57 10° ESE
NOSS 5 (C) 4.2 23:40:04 10° NW 23:43:10 85° SW 23:44:54 28° SE
STARLINK-1224 3.7 23:39:47 10° W 23:43:57 78° N 23:48:06 10° E
Cosmos 1271 Rocket 3.9 23:42:16 19° SW 23:44:29 36° WNW 23:48:10 10° N
In-Cosmos 22 4.0 23:41:55 26° SSW 23:45:00 86° WNW 23:50:20 10° NNE
STARLINK-1208 3.5 23:42:35 10° WNW 23:46:46 89° SSW 23:50:55 10° ESE
CZ-4 R/B 4.4 23:43:38 10° NNE 23:48:18 46° E 23:50:41 25° SSE
STARLINK-1225 3.7 23:44:47 10° W 23:48:57 77° N 23:53:07 10° E
Cosmos 1606 Rocket 3.4 23:45:21 10° NNW 23:49:42 86° WSW 23:51:47 30° S
Cosmos 2219 4.2 23:45:09 10° NNW 23:50:37 45° NE 23:56:00 10° ESE
STARLINK-1271 3.5 23:47:34 10° WNW 23:51:45 87° S 23:55:54 10° ESE
Cosmos 1707 4.0 23:50:53 19° SW 23:53:04 34° WNW 23:56:39 10° N
Cosmos 1655 Rocket 4.4 23:49:21 19° SSW 23:53:47 55° WNW 23:59:57 10° N
STARLINK-1230 3.7 23:49:45 10° W 23:53:55 77° N 23:58:05 10° E
SL-14 R/B 4.4 23:53:14 22° SE 23:54:54 32° E 23:58:21 10° NNE
NOSS 7 (A) 4.5 23:54:07 36° SW 23:55:11 84° NW 23:58:08 10° NE
